"Pseudo-MPEC" for P10NxKM

Created 2019 May 21 8:07:19 UT using Find_Orb

Click here for an explanation of pseudo-MPECs

 
 Astrometry: 
     P10NxKM  C2019 05 07Ku]2:l;^\U1NGVl6l!5BU?VUtGS^28dbOPBk:XFK,H[R8(SMJcl'F51
     P10NxKM  C2019 05 07rA'?N?+A]mp3J8%dp%jV'K/?Sl$%9Astrometry_w4@9H]woT0?lF51
     P10NxKM  C2019 05 07i^=oNsvy\p-yredacted;eXclickU$VCDL`7NChDQy=xB!;7Ohh)F51
     P10NxKM  C2019 05 07%^j$U\03l-1?mHGk7kBjc@2d5$n$lw)*Aa^vwncjtcIB0n3Vk#?1F51
     P10NxKM |C2019 05 126)!nQY:(DI#(yQbD-\-0Y%ltppm[`P\T(;n0Wl44N3i%P3f2Awk9807
     P10NxKM |C2019 05 12V8g.Z;H0xVlm$W%pkmDX\$.pDAkAf^QXKWf+shoKDrHswrEqv'u+807
     P10NxKM |C2019 05 12Q?v;FZF%+$EjQ4:VXVN[here)SforGKJwRy(^sbZexplanation4807

Station data:
(807) Cerro Tololo Observatory, La Serena  (S30.169136 W70.805900)  Chile.
(F51) Pan-STARRS 1, Haleakala  (N20.707235 W156.255910)  US/Hawaii.
   Observers N. Primak, A. Schultz, S. Watters, J. Thiel, T. Goggia. Measurer
   PS1 Science Consortium. 1.8-m Ritchey-Chrétien + CCD.

Orbital elements:  P10NxKM
   Perihelion 2019 Dec 30.916306 +/- 383 TT = 21:59:28 (JD 2458848.416306)
Epoch 2019 May 12.0 TT = JDT 2458615.5   Earth MOID: 0.6159   AutoNEOCP
M 292.31650928 +/- 90               (J2000 ecliptic)
n   0.29059146 +/- 0.126            Peri.  186.59131 +/- 47
a   2.25742923 +/- 0.654            Node   117.26615 +/- 33
e   0.2773008 +/- 0.212             Incl.    4.35687 +/- 1.6
P   3.39                   H 19.3   G  0.15   U 11.4  SR
q 1.63144219 +/- 0.458    Q 2.88341627 +/- 5.97
From 7 observations 2019 May 7-12; mean residual 0".14
Residuals in arcseconds: 
190507 F51  .17-  .03-    190507 F51  .20+  .19-    190512 807  .15+  .01-    
190507 F51  .15-  .14+    190512 807  .24-  .09-    
190507 F51  .12+  .07+    190512 807  .09+  .10+    

Ephemerides (geocentric):
Date (UTC) HH   RA              Dec         delta   r     elong  mag " sig PA
---- -- -- --  -------------   -----------  ------ ------ -----  --- ---- ---
2019 05 21 08  12 25 28.098   +04 27 45.96  1.4191 2.1557 124.1 22.9  494  27
2019 05 21 09  12 25 27.790   +04 27 41.45  1.4194 2.1556 124.0 22.9  497  27
2019 05 21 10  12 25 27.486   +04 27 36.92  1.4197 2.1555 124.0 22.9  501  27
2019 05 21 11  12 25 27.185   +04 27 32.37  1.4199 2.1553 123.9 22.9  504  27
2019 05 21 12  12 25 26.887   +04 27 27.79  1.4202 2.1552 123.9 22.9  508  27
2019 05 21 13  12 25 26.592   +04 27 23.19  1.4205 2.1551 123.9 22.9  511  27
2019 05 21 14  12 25 26.301   +04 27 18.57  1.4207 2.1549 123.8 22.9  515  27
2019 05 21 15  12 25 26.013   +04 27 13.92  1.4210 2.1548 123.8 22.9  519  27
2019 05 21 16  12 25 25.728   +04 27 09.25  1.4213 2.1546 123.7 22.9  522  27
2019 05 21 17  12 25 25.447   +04 27 04.56  1.4215 2.1545 123.7 22.9  526  27
2019 05 21 18  12 25 25.169   +04 26 59.84  1.4218 2.1544 123.7 22.9  530  27
2019 05 21 19  12 25 24.894   +04 26 55.10  1.4221 2.1542 123.6 22.9  533  27
2019 05 21 20  12 25 24.623   +04 26 50.33  1.4223 2.1541 123.6 22.9  537  27
2019 05 21 21  12 25 24.354   +04 26 45.54  1.4226 2.1540 123.5 22.9  541  27
2019 05 21 22  12 25 24.089   +04 26 40.73  1.4229 2.1538 123.5 22.9  544  27
2019 05 21 23  12 25 23.828   +04 26 35.90  1.4231 2.1537 123.5 22.9  548  27
2019 05 22 00  12 25 23.569   +04 26 31.04  1.4234 2.1535 123.4 22.9  552  27
2019 05 22 01  12 25 23.314   +04 26 26.16  1.4237 2.1534 123.4 22.9  556  27
2019 05 22 02  12 25 23.062   +04 26 21.25  1.4239 2.1533 123.3 22.9  559  27
2019 05 22 03  12 25 22.814   +04 26 16.32  1.4242 2.1531 123.3 22.9  563  27
2019 05 22 04  12 25 22.569   +04 26 11.37  1.4245 2.1530 123.3 22.9  567  27
2019 05 22 05  12 25 22.327   +04 26 06.40  1.4247 2.1529 123.2 22.9  571  27
2019 05 22 06  12 25 22.088   +04 26 01.40  1.4250 2.1527 123.2 22.9  574  27
2019 05 22 07  12 25 21.852   +04 25 56.38  1.4253 2.1526 123.1 22.9  578  27
2019 05 22 08  12 25 21.620   +04 25 51.33  1.4255 2.1525 123.1 22.9  582  27
2019 05 22 09  12 25 21.392   +04 25 46.26  1.4258 2.1523 123.1 22.9  586  27
2019 05 22 10  12 25 21.166   +04 25 41.17  1.4261 2.1522 123.0 22.9  590  27
2019 05 22 11  12 25 20.944   +04 25 36.05  1.4264 2.1520 123.0 22.9  593  27
2019 05 22 12  12 25 20.725   +04 25 30.92  1.4266 2.1519 122.9 22.9  597  27
2019 05 22 13  12 25 20.509   +04 25 25.75  1.4269 2.1518 122.9 22.9  601  27
2019 05 22 14  12 25 20.297   +04 25 20.57  1.4272 2.1516 122.9 22.9  605  27
2019 05 22 15  12 25 20.088   +04 25 15.36  1.4274 2.1515 122.8 22.9  609  27
2019 05 22 16  12 25 19.882   +04 25 10.13  1.4277 2.1514 122.8 22.9  613  27
2019 05 22 17  12 25 19.679   +04 25 04.88  1.4280 2.1512 122.7 22.9  617  27
2019 05 22 18  12 25 19.480   +04 24 59.60  1.4282 2.1511 122.7 22.9  621  27
2019 05 22 19  12 25 19.284   +04 24 54.30  1.4285 2.1509 122.7 22.9  625  27
2019 05 22 20  12 25 19.091   +04 24 48.97  1.4288 2.1508 122.6 22.9  629  27
2019 05 22 21  12 25 18.902   +04 24 43.62  1.4291 2.1507 122.6 22.9  633  27
2019 05 22 22  12 25 18.716   +04 24 38.25  1.4293 2.1505 122.6 22.9  637  27
2019 05 22 23  12 25 18.533   +04 24 32.86  1.4296 2.1504 122.5 22.9  641  27
2019 05 23 00  12 25 18.353   +04 24 27.44  1.4299 2.1503 122.5 22.9  645  27
2019 05 23 01  12 25 18.177   +04 24 22.00  1.4301 2.1501 122.4 22.9  649  27
2019 05 23 02  12 25 18.004   +04 24 16.54  1.4304 2.1500 122.4 22.9  653  27
2019 05 23 03  12 25 17.834   +04 24 11.05  1.4307 2.1499 122.4 22.9  657  27
2019 05 23 04  12 25 17.668   +04 24 05.54  1.4310 2.1497 122.3 22.9  661  27
2019 05 23 05  12 25 17.505   +04 24 00.01  1.4312 2.1496 122.3 22.9  665  27
2019 05 23 06  12 25 17.345   +04 23 54.45  1.4315 2.1494 122.2 22.9  669  27
2019 05 23 07  12 25 17.188   +04 23 48.88  1.4318 2.1493 122.2 22.9  673  27